[[{"header":{"parameterUnit":"m.s-1","parameterCategory":1,"la1":30.2991,"la2":30.254,"lo1":-89.0895,"lo2":-89.0444,"dy":0.0017,"dx":0.0017,"nx":28,"ny":28,"refTime":"2024-08-19T09:00:00:Z","depth":0,"parameterNumber":2,"parameterNumberName":"U-component_of_WINDS"},"data":[0,0,0,0,0,0,0,0,0,0,0,0,0,0,0,0,0,0,0,0,0,0,0,0,0,0,0,0,0,0,0,0,0,0,0,0,0,0,0,0,0,0,0,0,0,0,0,0,0,0,0,0,0,0,0,0,0,0,0.9039,0.9039,0,0.9052,0.9052,0.9052,0.9008,0.9006,0.9005,0.9004,0.9019,0.9021,0.9022,0,0,0,0,0,0,0,0,0,0,0,0,0,0.8978,0.8979,0.9039,0.9039,0.9039,0.9052,0.9052,0.9052,0.9008,0.9006,0.9005,0.9003,0.9018,0.902,0.9022,0,0,0,0,0,0,0,0,0,0,0,0,0,0.8999,0.898,0.9039,0.9018,0.9017,0.9052,0.9052,0.9052,0.9008,0.9006,0.9004,0.9002,0.9018,0.902,0.9023,0.9079,0,0,0.903,0.9031,0,0,0,0,0,0,0,0,0.8998,0.9002,0.9021,0.902,0.9018,0.9026,0.9036,0.9061,0.9009,0.9011,0.9004,0.9001,0.9023,0.9025,0.9032,0.9079,0.908,0.9031,0.9032,0.9033,0.9034,0,0,0,0,0,0,0,0.8997,0.9001,0.9044,0.9022,0.902,0.901,0.901,0.9041,0.9029,0.9011,0.9008,0.901,0.9022,0.903,0.9032,0.908,0.9031,0.9033,0.9034,0.9035,0.9176,0.9178,0,0,0,0,0,0,0.8998,0.9,0.9043,0.9044,0.9003,0.9012,0.9013,0.9025,0.9028,0.9026,0.9012,0.9008,0.9026,0.9029,0.9032,0.9099,0.9033,0.9035,0.9037,0.9174,0.9177,0.9179,0,0,0,0,0,0,0.8996,0.9002,0.9043,0.9021,0.9026,0.9015,0.903,0.9027,0.9035,0.9028,0.9026,0.9022,0.9025,0.9029,0.9068,0.9099,0.9037,0.9039,0.9171,0.9175,0.9178,0.9233,0,0,0,0,0,0,0.8995,0.9002,0.9022,0.9022,0.9027,0.9077,0.9032,0.9029,0.9039,0.9034,0.9037,0.9036,0.9024,0.9064,0.907,0.9102,0.9041,0.9168,0.9173,0.9177,0.9228,0.9238,0.9246,0,0,0,0,0,0.8993,0.9037,0.9023,0.9029,0.9052,0.9079,0.9082,0.9066,0.9041,0.9062,0.9059,0.9036,0.9095,0.9069,0.9075,0.9107,0.9166,0.9172,0.9176,0.9224,0.9236,0.9246,0,0,0,0,0,0,0.9041,0.9037,0.9021,0.9067,0.9074,0.9072,0.9097,0.9079,0.9094,0.9089,0.9069,0.907,0.9113,0.9114,0.9085,0.9163,0.9126,0.9133,0.9161,0.9172,0.918,0.9179,0.9043,0,0,0,0,0,0.9057,0.9079,0.9074,0.9114,0.9119,0.9108,0.9119,0.9106,0.9113,0.9116,0.9115,0.9123,0.9144,0.9157,0.9176,0.9228,0.9229,0.9254,0.9263,0.927,0.9276,0.9306,0.9317,0.9196,0.9196,0.9196,0,0,0.909,0.9091,0.9105,0.9124,0.9128,0.9152,0.911,0.9137,0.9155,0.912,0.9157,0.9157,0.9165,0.9211,0.9231,0.9213,0.931,0.9276,0.9282,0.9284,0.9312,0.9323,0.9334,0.9199,0.9198,0.9198,0,0,0.9163,0.9165,0.92,0.9205,0.9211,0.9204,0.9212,0.9213,0.9212,0.9249,0.9223,0.9245,0.928,0.9287,0.9296,0.9373,0.9353,0.938,0.9426,0.9455,0.9464,0.9473,0.9502,0.9513,0.9386,0.9386,0.9386,0,0.9204,0.9238,0.922,0.9249,0.9259,0.9228,0.9264,0.927,0.9282,0.929,0.9269,0.9314,0.9317,0.9366,0.9385,0.9392,0.9402,0.9379,0.9464,0.9473,0.948,0.9508,0.9519,0.9389,0.9389,0.9388,0.9388,0,0.9289,0.9313,0.934,0.9353,0.9366,0.9398,0.9386,0.9401,0.9388,0.9384,0.9422,0.9425,0.9444,0.9455,0.9442,0.9502,0.9491,0.9467,0.9431,0.9495,0.9521,0.9531,0.9394,0.9393,0.9392,0.9391,0,0,0.9392,0.9395,0.9406,0.9412,0.9417,0.9436,0.9468,0.9486,0.9501,0.9511,0.9538,0.9569,0.9548,0.9558,0.9546,0.9571,0.9634,0.9545,0.9545,0.9563,0.9703,0.9721,0.9733,0.9621,0.9623,0.9624,0.9703,0,0.9465,0.9518,0.9503,0.9557,0.9581,0.9553,0.958,0.9588,0.9585,0.9605,0.9601,0.9624,0.9594,0.96,0.9624,0.9622,0.9662,0.9616,0.9647,0.9649,0.9647,0.9746,0.9765,0.9839,0.9712,0.9714,0.9715,0,0.9556,0.957,0.9627,0.963,0.9639,0.9664,0.9681,0.97,0.9708,0.9704,0.9716,0.9699,0.9732,0.9695,0.974,0.9709,0.9721,0.9722,0.9725,0.9728,0.9686,0.9753,0.9862,0.9873,0.973,0.9729,0.9728,0,0.9628,0.9661,0.9699,0.9705,0.9709,0.9728,0.9731,0.9737,0.975,0.9764,0.9773,0.9791,0.9802,0.9817,0.9807,0.978,0.9855,0.9816,0.9854,0.9854,0.9871,0.9871,0.9985,0.9878,0.9878,0.9877,0.9877,0,0.9711,0.9747,0.9731,0.9755,0.9795,0.9778,0.9819,0.9818,0.9825,0.9849,0.9825,0.9849,0.9833,0.9856,0.9847,0.9888,0.9892,0.9891,0.9889,0.9894,0.9894,0.9902,0.9897,0.988,0.988,0.9879,0.9879,0,0.9798,0.9789,0.9829,0.983,0.9831,0.9861,0.9862,0.9885,0.988,0.9911,0.9918,0.9911,0.9937,0.9927,0.9954,0.9949,1.0001,0.9991,0.9998,0.9996,1.0035,1.0032,1.0159,1.0175,1.0057,1.0058,1.0059,0,0.9852,0.9879,0.9884,0.9898,0.9902,0.9926,0.9939,0.9924,0.9938,0.9951,0.9973,0.9996,1.0014,1.0056,1.0054,1.0076,1.0067,1.011,1.007,1.0075,1.0069,1.0068,1.0072,1.0118,1.012,1.0121,1.0122,0,0.995,0.9944,0.9963,0.9982,0.9998,1.0011,1.0023,1.0036,1.0022,1.004,1.0065,1.0079,1.0108,1.0132,1.0151,1.0155,1.0137,1.0134,1.0144,1.015,1.0154,1.0154,1.0021,1.0132,1.0131,1.013,1.0129,1.0129,1.0023,1.0047,1.0054,1.0076,1.0083,1.0095,1.0117,1.0115,1.0136,1.0158,1.0148,1.0178,1.0187,1.0211,1.0218,1.0243,1.0226,1.024,1.0244,1.0248,1.0254,1.0149,1.0246,1.0246,1.0245,1.0245,1.0245,0,1.0121,1.0124,1.0145,1.0162,1.0181,1.0161,1.0173,1.019,1.0217,1.0227,1.0245,1.0276,1.0299,1.03,1.0322,1.0342,1.0334,1.0348,1.0347,1.0349,1.0267,1.0256,1.0354,1.0354,1.0354,1.0354,1.0354,1.0354,1.0174,1.0213,1.0209,1.0252,1.0255,1.0284,1.0293,1.0304,1.0312,1.0347,1.0367,1.0367,1.0373,1.0396,1.0418,1.0418,1.0428,1.0445,1.0442,1.0365,1.0355,1.0344,1.0335,1.0447,1.0447,1.0523,1.0523,1.0524]},{"header":{"parameterUnit":"m.s-1","parameterCategory":1,"la1":30.2991,"la2":30.254,"lo1":-89.0895,"lo2":-89.0444,"dy":0.0017,"dx":0.0017,"nx":28,"ny":28,"refTime":"2024-08-19T09:00:00:Z","depth":0,"parameterNumber":3,"parameterNumberName":"V-component_of_WINDS"},"data":[0,0,0,0,0,0,0,0,0,0,0,0,0,0,0,0,0,0,0,0,0,0,0,0,0,0,0,0,0,0,0,0,0,0,0,0,0,0,0,0,0,0,0,0,0,0,0,0,0,0,0,0,0,0,0,0,0,0,-3.7899,-3.7899,0,-3.799,-3.7991,-3.7992,-3.8007,-3.8006,-3.8005,-3.8005,-3.8094,-3.8097,-3.81,0,0,0,0,0,0,0,0,0,0,0,0,0,-3.7734,-3.7737,-3.7898,-3.79,-3.7901,-3.799,-3.7991,-3.7992,-3.8007,-3.8006,-3.8005,-3.8004,-3.8093,-3.8096,-3.81,0,0,0,0,0,0,0,0,0,0,0,0,0,-3.7813,-3.7738,-3.7898,-3.7919,-3.7922,-3.799,-3.7991,-3.7993,-3.8007,-3.8006,-3.8005,-3.8004,-3.8092,-3.8096,-3.8101,-3.8153,0,0,-3.8115,-3.8117,0,0,0,0,0,0,0,0,-3.7809,-3.7819,-3.7915,-3.7918,-3.7921,-3.7986,-3.7966,-3.8046,-3.8007,-3.7975,-3.8005,-3.8003,-3.8059,-3.8066,-3.8086,-3.8157,-3.8161,-3.8115,-3.8118,-3.812,-3.8122,0,0,0,0,0,0,0,-3.7803,-3.7815,-3.7935,-3.7916,-3.792,-3.7923,-3.7933,-3.7981,-3.8022,-3.7977,-3.7979,-3.799,-3.806,-3.8081,-3.8088,-3.8163,-3.8115,-3.8119,-3.8122,-3.8124,-3.8285,-3.8286,0,0,0,0,0,0,-3.7794,-3.7811,-3.7932,-3.7937,-3.7861,-3.7927,-3.7938,-3.7966,-3.8021,-3.8029,-3.799,-3.799,-3.8074,-3.8082,-3.8091,-3.8158,-3.812,-3.8125,-3.8127,-3.8283,-3.8285,-3.8287,0,0,0,0,0,0,-3.7791,-3.7805,-3.7928,-3.7874,-3.789,-3.7931,-3.7962,-3.7969,-3.799,-3.8031,-3.8038,-3.8005,-3.8073,-3.8084,-3.8139,-3.8161,-3.8127,-3.8131,-3.8281,-3.8284,-3.8286,-3.8291,0,0,0,0,0,0,-3.7786,-3.7804,-3.7824,-3.7875,-3.7893,-3.7975,-3.7964,-3.7971,-3.7998,-3.7998,-3.8047,-3.8053,-3.8073,-3.8132,-3.8143,-3.8167,-3.8135,-3.828,-3.8282,-3.8285,-3.8289,-3.8293,-3.8297,0,0,0,0,0,-3.778,-3.7821,-3.7825,-3.784,-3.792,-3.7976,-3.7986,-3.8009,-3.8,-3.8021,-3.8048,-3.8052,-3.8157,-3.8137,-3.815,-3.8176,-3.8278,-3.8282,-3.8285,-3.8287,-3.8293,-3.8297,0,0,0,0,0,0,-3.7769,-3.7828,-3.7833,-3.7892,-3.7929,-3.7978,-3.8006,-3.8014,-3.8053,-3.8051,-3.8077,-3.8088,-3.8141,-3.8163,-3.814,-3.8231,-3.8217,-3.8223,-3.8214,-3.8219,-3.8223,-3.8217,-3.8138,0,0,0,0,0,-3.7774,-3.7816,-3.7864,-3.7911,-3.793,-3.7964,-3.7989,-3.8004,-3.8043,-3.8059,-3.809,-3.8127,-3.8168,-3.8195,-3.8235,-3.8292,-3.8304,-3.8317,-3.8321,-3.8323,-3.8329,-3.8363,-3.837,-3.8297,-3.8297,-3.8297,0,0,-3.7784,-3.7821,-3.7845,-3.791,-3.794,-3.7983,-3.7977,-3.8021,-3.8053,-3.8065,-3.8119,-3.8143,-3.8186,-3.8243,-3.8269,-3.8263,-3.8351,-3.8328,-3.833,-3.8333,-3.8367,-3.8374,-3.838,-3.83,-3.8299,-3.8299,0,0,-3.7824,-3.7855,-3.7899,-3.7931,-3.7978,-3.8002,-3.8012,-3.8061,-3.8079,-3.8134,-3.8144,-3.8182,-3.8252,-3.8283,-3.8308,-3.8362,-3.8367,-3.8374,-3.8394,-3.8427,-3.8433,-3.8438,-3.8459,-3.8466,-3.8379,-3.8379,-3.8379,0,-3.7829,-3.7895,-3.792,-3.7965,-3.7994,-3.8009,-3.8054,-3.8082,-3.814,-3.8159,-3.8152,-3.8243,-3.8272,-3.8338,-3.8351,-3.837,-3.8384,-3.8369,-3.8431,-3.8436,-3.8441,-3.8462,-3.8469,-3.838,-3.838,-3.838,-3.838,0,-3.79,-3.7945,-3.7975,-3.8033,-3.8065,-3.8109,-3.8141,-3.817,-3.8183,-3.8207,-3.8263,-3.83,-3.8349,-3.8366,-3.8377,-3.8433,-3.8428,-3.8426,-3.8412,-3.8448,-3.8468,-3.8476,-3.8381,-3.838,-3.838,-3.838,0,0,-3.7934,-3.8008,-3.8019,-3.8047,-3.8101,-3.8136,-3.8182,-3.8232,-3.8257,-3.8296,-3.8336,-3.8396,-3.8395,-3.8423,-3.8439,-3.8467,-3.8511,-3.8462,-3.8463,-3.8471,-3.8577,-3.858,-3.8588,-3.8515,-3.8516,-3.8517,-3.8574,0,-3.7982,-3.8065,-3.8091,-3.8161,-3.8203,-3.8219,-3.8259,-3.8297,-3.8321,-3.836,-3.8386,-3.843,-3.8424,-3.8442,-3.8471,-3.8499,-3.8533,-3.8495,-3.8551,-3.8553,-3.8541,-3.8598,-3.8601,-3.8652,-3.8581,-3.8583,-3.8584,0,-3.8048,-3.8091,-3.8166,-3.8218,-3.8237,-3.8273,-3.8322,-3.8359,-3.8403,-3.8418,-3.8452,-3.8465,-3.8513,-3.8497,-3.8564,-3.8539,-3.8563,-3.8581,-3.8583,-3.859,-3.8571,-3.8607,-3.8669,-3.8677,-3.8596,-3.8595,-3.8594,0,-3.8067,-3.8144,-3.82,-3.8223,-3.8284,-3.8309,-3.8336,-3.8378,-3.8408,-3.845,-3.847,-3.8516,-3.8542,-3.8578,-3.8604,-3.859,-3.867,-3.8655,-3.8684,-3.8684,-3.8701,-3.8699,-3.8768,-3.8715,-3.8714,-3.8714,-3.8714,0,-3.8118,-3.8163,-3.821,-3.8244,-3.8296,-3.8325,-3.8375,-3.8402,-3.844,-3.848,-3.8496,-3.8532,-3.8564,-3.8605,-3.8625,-3.8679,-3.8689,-3.8704,-3.8709,-3.8703,-3.8701,-3.872,-3.8717,-3.8716,-3.8716,-3.8716,-3.8715,0,-3.8149,-3.8182,-3.8244,-3.8298,-3.8313,-3.8349,-3.8395,-3.8428,-3.8454,-3.8504,-3.8517,-3.8557,-3.8606,-3.8636,-3.8697,-3.8711,-3.8771,-3.8773,-3.8757,-3.8759,-3.8787,-3.8785,-3.8871,-3.8885,-3.8821,-3.8821,-3.8822,0,-3.8179,-3.8215,-3.8274,-3.8303,-3.8331,-3.8376,-3.8407,-3.8437,-3.8469,-3.8522,-3.855,-3.8601,-3.8643,-3.872,-3.8754,-3.8802,-3.8807,-3.8834,-3.8814,-3.8808,-3.8809,-3.8807,-3.8812,-3.8837,-3.8838,-3.8838,-3.8838,0,-3.8231,-3.8246,-3.8291,-3.8343,-3.838,-3.8421,-3.8462,-3.8484,-3.8522,-3.8556,-3.8608,-3.8641,-3.8706,-3.8756,-3.8807,-3.8833,-3.8843,-3.8845,-3.8854,-3.8849,-3.8839,-3.8847,-3.8767,-3.8842,-3.8842,-3.8842,-3.8842,-3.8841,-3.8263,-3.8297,-3.8345,-3.8395,-3.843,-3.8469,-3.8504,-3.8535,-3.858,-3.8636,-3.8651,-3.8705,-3.8749,-3.8819,-3.8847,-3.889,-3.8886,-3.8899,-3.8903,-3.8906,-3.8908,-3.8832,-3.8899,-3.8899,-3.8899,-3.8899,-3.8899,0,-3.8317,-3.8349,-3.8395,-3.8454,-3.8494,-3.8501,-3.8547,-3.858,-3.8629,-3.867,-3.8712,-3.8773,-3.8822,-3.8861,-3.8912,-3.8939,-3.8945,-3.8951,-3.895,-3.8957,-3.8908,-3.8895,-3.8946,-3.8946,-3.8946,-3.8946,-3.8946,-3.8946,-3.8349,-3.8408,-3.8429,-3.8505,-3.8537,-3.8592,-3.8619,-3.8655,-3.8688,-3.8756,-3.8798,-3.8824,-3.8865,-3.8919,-3.8965,-3.8975,-3.8994,-3.9,-3.9011,-3.8965,-3.896,-3.8955,-3.8943,-3.9004,-3.9004,-3.9057,-3.9057,-3.9057]}]]